Weather History for Worland, WY

Change the Weather History Date:

Wednesday, January 2, 2013

  Actual Average Record
Temperature  
Mean Temperature 9 °F 16 °F  
Max Temperature 23 °F 30 °F 54 °F (1998)
Min Temperature -5 °F 3 °F -31 °F (1979)
Degree Days  
Heating Degree Days 56 49  
Month to date heating degree days 110 98  
Since 1 July heating degree days 2852 3461  
Cooling Degree Days 0 0  
Month to date cooling degree days 0 0  
Year to date cooling degree days 0 0  
Moisture  
Dew Point 4 °F    
Average Humidity 74    
Maximum Humidity 91    
Minimum Humidity 57    
Precipitation  
Precipitation 0.00 in 0.00 in 0.13 in (1972)
Month to date precipitation T 0.01  
Year to date precipitation T 0.01  
Sea Level Pressure  
Sea Level Pressure 30.48 in    
Wind  
Wind Speed 5 mph (SSW)    
Max Wind Speed 60 mph    
Max Gust Speed -    
Visibility 10 miles    
Events      
T = Trace of Precipitation, MM = Missing Value Source: NWS Daily Summary

Daily Weather History Graph

Daily Weather History Graph

Search for Another Location

Airport:

Trip Planner

Search our weather history database for the weather conditions in past years. The results will help you decide how hot, cold, wet, or windy it might be!

Date:

Astronomy

Jan. 02, 2013 Rise Set
Actual Time 7:46 AM MST 4:45 PM MST
Civil Twilight 7:13 AM MST 5:18 PM MST
Nautical Twilight 6:37 AM MST 5:54 PM MST
Astronomical Twilight 6:02 AM MST 6:29 PM MST
Moon 10:34 PM MST (1/2) 10:18 AM MST (1/2)
Length of Visible Light 10h 04m
Length of Day
8h 59m
Waning Gibbous, 74% of the Moon is Illuminated
Jan 2
Waning Gibbous
Jan 4
Last Quarter
Jan 11
New
Jan 18
First Quarter
Jan 26
Full

Hourly Weather History & Observations

Time (MST) Temp. Windchill Dew Point Humidity Pressure Visibility Wind Dir Wind Speed Gust Speed Precip Events Conditions
12:53 AM 16.0 °F 4.4 °F 12.0 °F 84% 30.40 in 10.0 mi SSW 9.2 mph - N/A   Overcast
1:53 AM 16.0 °F 6.3 °F 12.0 °F 84% 30.39 in 10.0 mi South 6.9 mph - N/A   Overcast
2:53 AM 15.1 °F 4.2 °F 10.0 °F 80% 30.39 in 10.0 mi SSW 8.1 mph - N/A   Overcast
3:53 AM 15.1 °F 6.4 °F 10.0 °F 80% 30.40 in 10.0 mi SSW 5.8 mph - N/A   Overcast
5:53 AM 15.1 °F - 9.0 °F 77% 30.45 in 10.0 mi Calm Calm - N/A   Overcast
6:53 AM 8.1 °F -2.0 °F 3.9 °F 83% 30.46 in 10.0 mi SSW 5.8 mph - N/A   Clear
7:53 AM 7.0 °F -6.6 °F 3.0 °F 84% 30.48 in 10.0 mi SSW 9.2 mph - N/A   Unknown
8:53 AM 9.0 °F 0.6 °F 3.9 °F 80% 30.49 in 10.0 mi SSE 4.6 mph - N/A   Clear
9:53 AM 7.0 °F 0.1 °F 1.9 °F 80% 30.51 in 10.0 mi SSE 3.5 mph - N/A   Clear
10:53 AM 12.9 °F 5.2 °F 6.1 °F 74% 30.48 in 10.0 mi WSW 4.6 mph - N/A   Clear
11:53 AM 18.0 °F - 8.1 °F 65% 30.45 in 10.0 mi Calm Calm - N/A   Clear
12:53 PM 19.0 °F - 10.0 °F 68% 30.43 in 10.0 mi Calm Calm - 0.00 in   Clear
1:53 PM 21.9 °F - 9.0 °F 58% 30.41 in 10.0 mi Calm Calm - N/A   Unknown
2:53 PM 21.0 °F - 9.0 °F 60% 30.42 in 10.0 mi Calm Calm - N/A   Clear
4:53 PM 10.9 °F 2.9 °F 3.0 °F 70% 30.49 in 10.0 mi South 4.6 mph - N/A   Clear
5:53 PM 5.0 °F -5.6 °F 1.0 °F 84% 30.51 in 10.0 mi SW 5.8 mph - N/A   Clear
6:53 PM 3.9 °F -6.9 °F 1.0 °F 88% 30.55 in 10.0 mi South 5.8 mph - N/A   Clear
7:53 PM 6.1 °F -4.3 °F -0.0 °F 76% 30.54 in 10.0 mi SSW 5.8 mph - N/A   Clear
8:53 PM 1.0 °F - -2.9 °F 83% 30.56 in 10.0 mi Calm Calm - N/A   Clear
9:53 PM -0.0 °F -14.2 °F -5.1 °F 79% 30.59 in 10.0 mi South 8.1 mph - N/A   Clear
10:53 PM 3.9 °F -6.9 °F -2.0 °F 76% 30.56 in 10.0 mi South 5.8 mph - N/A   Clear
11:53 PM -2.9 °F - -7.1 °F 82% 30.57 in 10.0 mi Calm Calm - N/A   Clear